Home > Weather > Bautzen > Past weeks

Flag for Germany Past Weather in Bautzen, Saxony, Germany — Yesterday and Last 2 Weeks

Now
63 °F

Passing clouds.


Feels Like: 63 °F
Forecast: 57 / 78 °F
Wind: 8 mph from Southwest

Location: Dresden-Klotzsche

Current Time: Jul 1, 2016 at 4:47:22 AM

Latest Report: Jul 1, 2016 at 4:20 AM


Visibility: N/A

Pressure: 29.98 "Hg

Humidity: 94%

Dew Point: 61 °F

Location of BautzenLocation

Past Weather in Bautzen — Graph

°F

Bautzen Temperature Yesterday

Maximum temperature yesterday: 75 °F (at 4:50 PM)
Minimum temperature yesterday: 59 °F (at 4:20 AM)
Average temperature yesterday: 67 °F

High & Low Weather Summary for the Past Weeks

 TemperatureHumidityPressure
High91 °F (Jun 24, 4:50 PM)100% (Jun 16, 11:50 PM)30.27 "Hg (Jun 16, 11:50 PM)
Low52 °F (Jun 16, 4:50 AM)29% (Jun 24, 2:20 PM)29.50 "Hg (Jun 17, 3:50 AM)
Average66 °F73%30.01 "Hg
* Reported Jun 16 3:20 AM — Jul 1 3:50 AM, Bautzen, Weather by CustomWeather, © 2016

Note: Actual official high and low records may vary slightly from our data, if they occured in-between our weather recording intervals... More about our weather records

Advertising

Bautzen Weather History for the Previous 24 Hours

Scroll right to see more
 ConditionsComfort  
Time TempWeatherWind HumidityBarometerVisibility
3:50 AM
Fri, Jul 1
61 °FClear.7 mph94%29.98 "Hg10 mi
3:20 AM61 °FClear.7 mph100%29.98 "Hg10 mi
2:50 AM61 °FClear.5 mph100%29.98 "Hg10 mi
2:20 AM63 °FPassing clouds.6 mph94%29.98 "HgN/A
1:50 AM63 °FPassing clouds.3 mph94%29.98 "HgN/A
1:20 AM61 °FPassing clouds.3 mph94%29.98 "HgN/A
12:50 AM63 °FPassing clouds.3 mph94%29.98 "HgN/A
12:20 AM63 °FClear.2 mph88%29.98 "Hg10 mi
11:50 PM
Thu, Jun 30
64 °FClear.7 mph88%30.01 "Hg10 mi
11:20 PM64 °FClear.6 mph88%29.98 "Hg10 mi
10:50 PM64 °FClear.5 mph88%30.01 "Hg10 mi
10:20 PM66 °FSunny.3 mph83%30.01 "Hg10 mi
9:50 PM66 °FPassing clouds.2 mph83%29.98 "HgN/A
9:20 PM68 °FPassing clouds.3 mph78%29.98 "HgN/A
8:50 PM68 °FScattered clouds.2 mph78%29.98 "HgN/A
8:20 PM70 °FScattered clouds.3 mph73%29.98 "HgN/A
7:50 PM68 °FPassing clouds.2 mph78%29.98 "HgN/A
7:20 PM68 °FScattered clouds.6 mph83%29.98 "HgN/A
6:50 PM66 °FScattered showers. Broken clouds.12 mph83%29.95 "HgN/A
6:20 PM73 °FScattered clouds.3 mph57%29.95 "HgN/A
5:50 PM75 °FScattered clouds.3 mph57%29.95 "HgN/A
5:20 PM75 °FScattered clouds.3 mph50%29.95 "HgN/A
4:50 PM75 °FScattered clouds.6 mph54%29.95 "HgN/A
4:20 PM73 °FPartly sunny.5 mph57%29.95 "HgN/A
3:50 PM73 °FPartly sunny.6 mph57%29.95 "HgN/A
3:20 PM72 °FPartly sunny.5 mph57%29.98 "HgN/A
2:50 PM72 °FLight rain. Broken clouds.2 mph61%29.98 "HgN/A
2:20 PM72 °FPartly sunny.5 mph61%29.98 "HgN/A
1:50 PM72 °FBroken clouds.5 mph61%29.98 "HgN/A
1:20 PM72 °FBroken clouds.3 mph57%29.98 "HgN/A
12:50 PM72 °FPartly sunny.6 mph53%29.98 "HgN/A
12:20 PM72 °FPartly sunny.7 mph53%29.98 "HgN/A
11:50 AM72 °FPartly sunny.8 mph57%29.98 "HgN/A
11:20 AM73 °FBroken clouds.8 mph57%29.98 "HgN/A
10:50 AM72 °FBroken clouds.7 mph61%29.95 "HgN/A
10:20 AM70 °FPassing clouds.3 mph69%29.95 "HgN/A
9:50 AM68 °FPassing clouds.8 mph73%29.95 "HgN/A
9:20 AM68 °FSunny.7 mph73%29.95 "Hg10 mi
8:50 AM66 °FSunny.8 mph73%29.95 "Hg10 mi
8:20 AM66 °FSunny.7 mph73%29.92 "Hg10 mi
7:50 AM64 °FSunny.8 mph78%29.92 "Hg10 mi
7:20 AM63 °FSunny.8 mph83%29.92 "Hg10 mi
6:20 AM61 °FSunny.5 mph88%29.92 "Hg10 mi
5:50 AM61 °FClear.3 mph83%29.92 "Hg10 mi
5:20 AM59 °FPassing clouds.3 mph88%29.92 "HgN/A
4:50 AM59 °FClear.6 mph88%29.92 "Hg10 mi
4:20 AM59 °FClear.5 mph82%29.92 "Hg10 mi
Weather by CustomWeather, © 2016

See weather overviewHow to use our weather pages